Location: Newark
(48.8604°N, 2.3376°E)
Time: 22:04:15
(UTC+00:00)

XW-2F - Visible Passes

Search period start: 05 December 2021 00:00
Search period end: 15 December 2021 00:00
Orbit: 497 x 514 km, 97.5° (Epoch: 05 December)

Date Brightness Start Highest point End Pass type
(mag) Time Alt. Az. Time Alt. Az. Time Alt. Az.
05 Dec ? 05:15:14 10° NE 05:18:01 19° E 05:20:46 10° SE visible
05 Dec ? 06:48:30 10° N 06:52:01 38° WNW 06:55:31 10° SW visible
05 Dec ? 17:30:48 10° S 17:34:23 47° W 17:38:02 10° NNW visible
06 Dec ? 04:58:20 10° ENE 05:00:03 13° E 05:01:45 10° ESE visible
06 Dec ? 06:30:34 10° N 06:34:18 60° WNW 06:38:00 10° SSW visible
06 Dec ? 17:12:50 10° S 17:16:34 77° WSW 17:20:20 10° NNW visible
07 Dec ? 06:12:44 10° NNE 06:16:32 85° ESE 06:20:17 10° SSW visible
07 Dec ? 16:55:05 10° SSE 16:58:46 67° ENE 17:02:31 10° N visible
07 Dec ? 18:31:50 10° WSW 18:33:05 11° W 18:34:20 10° WNW visible
08 Dec ? 05:55:00 10° NNE 05:58:42 52° E 06:02:22 10° S visible
08 Dec ? 16:37:30 10° SE 16:41:01 41° ENE 16:44:36 10° N visible
08 Dec ? 18:12:32 10° SW 18:15:05 17° W 18:17:40 10° NW visible
09 Dec ? 05:37:23 10° NNE 05:40:50 33° E 05:44:14 10° SSE visible
09 Dec ? 17:53:57 10° SSW 17:57:08 26° W 18:00:22 10° NW visible
10 Dec ? 05:19:57 10° NE 05:22:54 21° E 05:25:49 10° SE visible
10 Dec ? 06:53:24 10° N 06:56:50 34° WNW 07:00:15 10° SW visible
10 Dec ? 17:35:41 10° S 17:39:14 41° W 17:42:49 10° NNW visible
11 Dec ? 05:02:50 10° NE 05:04:55 14° E 05:06:59 10° ESE visible
11 Dec ? 06:35:25 10° N 06:39:06 53° WNW 06:42:44 10° SSW visible
11 Dec ? 17:17:38 10° S 17:21:21 67° WSW 17:25:07 10° NNW visible
12 Dec ? 06:17:30 10° NNE 06:21:18 85° WNW 06:25:02 10° SSW visible
12 Dec ? 16:59:47 10° SSE 17:03:31 76° ENE 17:07:17 10° N visible
12 Dec ? 18:37:35 10° W 18:37:53 10° W 18:38:13 10° W visible
13 Dec ? 05:59:42 10° NNE 06:03:28 59° ESE 06:07:09 10° S visible
13 Dec ? 16:42:07 10° SE 16:45:44 47° ENE 16:49:22 10° N visible
13 Dec ? 18:17:30 10° SW 18:19:51 16° W 18:22:12 10° NW visible
14 Dec ? 05:42:01 10° NNE 05:45:33 37° E 05:49:02 10° SSE visible
14 Dec ? 17:58:47 10° SSW 18:01:51 24° W 18:04:57 10° NW visible
